User: anonymous   Login
Location: Unspecified
(0.0000°N, 0.0000°E)
Time: 20:12:45
(UTC+00:00)
Language:

AISAT - Orbit

View from above orbital plane
View from above orbital plane
View from above satellite
View from above satellite

Ground track
Ground track

The orbit data is extracted from the following two-line orbital elements,

1 40054U 14034B   19341.34257069  .00000268  00000-0  44911-4 0  9998
2 40054  98.2519 107.5379 0013285  35.7897 324.4200 14.77900818293081
Epoch (UTC): 07 December 2019 08:13:18
Eccentricity: 0.0013285
inclination: 98.2519°
perigee height: 626 km
apogee height: 645 km
right ascension of ascending node: 107.5379°
argument of perigee: 35.7897°
revolutions per day: 14.77900818
mean anomaly at epoch: 324.4200°
orbit number at epoch: 29308

The dashed part of the orbit path shows where the satellite is in the earth's shadow,  

DLR